Location: Unspecified
(0.0000°N, 0.0000°E)
Time: 03:37:37
(UTC+00:00)

Cosmos 1452 Rocket - Pass Details

Date: 27 January 2013
Orbit: 767 x 776 km, 74.1° (Epoch: 30 August)

Event Time Altitude Azimuth Distance (km) Brightness Sun altitude
Rises 19:51:01 0° 201° (SSW) 3,248 7.3 -23.2°
Reaches altitude 10° 19:53:27 10° 205° (SSW) 2,317 6.5 -23.8°
Maximum altitude 19:58:35 55° 282° (WNW) 917 4.1 -25.0°
Enters shadow 20:01:19 27° 349° (N) 1,458 4.8 -25.6°
